GW6225 Weather Reports


time (UTC)temp
C
wind
direction
speed
KPH
gust
KPH
rain 1hr
cm
rain 24hr
cm
rain mn
cm
humidity
%
barometer
mb
20260504192237 28 164 1.6 4.8 0.00 0.00 0.00 63 1015.3
20260504191735 27 189 4.8 9.7 0.00 0.00 0.00 60 1015.5
20260504191232 27 166 4.8 8.0 0.00 0.00 0.00 61 1015.3
20260504190727 27 178 8.0 9.7 0.00 0.00 0.00 64 1015.3
20260504190224 27 119 6.4 8.0 0.00 0.00 0.00 59 1015.6
20260504185720 27 148 4.8 4.8 0.00 0.00 0.00 63 1015.5
20260504185217 27 177 3.2 4.8 0.00 0.00 0.00 62 1015.4
20260504184713 27 178 6.4 14.5 0.00 0.00 0.00 61 1015.5
20260504184209 27 171 6.4 9.7 0.00 0.00 0.00 61 1015.6
20260504183705 27 207 6.4 9.7 0.00 0.00 0.00 62 1015.6
20260504183202 27 150 4.8 8.0 0.00 0.00 0.00 60 1015.7
20260504182700 27 148 3.2 4.8 0.00 0.00 0.00 63 1015.7
20260504182157 27 161 9.7 11.3 0.00 0.00 0.00 63 1015.8
20260504181655 27 146 8.0 9.7 0.00 0.00 0.00 61 1015.7
20260504181152 27 160 6.4 8.0 0.00 0.00 0.00 62 1016.0
20260504180651 27 187 8.0 11.3 0.00 0.00 0.00 61 1015.9
20260504180149 27 164 8.0 9.7 0.00 0.00 0.00 61 1016.0
20260504175646 28 160 6.4 9.7 0.00 0.00 0.00 60 1016.1
20260504175143 28 199 4.8 4.8 0.00 0.00 0.00 57 1016.2
20260504174641 27 158 4.8 8.0 0.00 0.00 0.00 61 1016.2
20260504174137 27 154 4.8 8.0 0.00 0.00 0.00 59 1016.4
20260504173635 27 174 3.2 4.8 0.00 0.00 0.00 59 1016.4
20260504173132 27 185 8.0 14.5 0.00 0.00 0.00 58 1016.6
20260504172628 27 164 8.0 9.7 0.00 0.00 0.00 59 1016.5
20260504172125 27 156 6.4 12.9 0.00 0.00 0.00 60 1016.5
20260504171621 27 161 1.6 3.2 0.00 0.00 0.00 59 1016.7
20260504171119 28 138 9.7 11.3 0.00 0.00 0.00 59 1016.7
20260504170615 28 119 8.0 11.3 0.00 0.00 0.00 58 1016.8
20260504170113 28 145 8.0 11.3 0.00 0.00 0.00 59 1016.8
20260504150958 26 164 8.0 11.3 0.00 0.00 0.00 63 1017.3
20260504150455 26 157 4.8 4.8 0.00 0.00 0.00 63 1017.5
20260504140921 23 170 3.2 4.8 0.00 0.00 0.00 71 1016.9
20260504140418 23 154 3.2 3.2 0.00 0.00 0.00 73 1017.1
20260504130343 17 142 0.0 0.0 0.00 0.00 0.00 95 1017.0
20260504120306 13 149 0.0 0.0 0.00 0.00 0.00 97 1016.7
20260504110230 12 149 0.0 0.0 0.00 0.00 0.00 97 1016.6
20260504100154 13 149 0.0 0.0 0.00 0.00 0.00 96 1017.1
20260504090116 13 149 0.0 0.0 0.00 0.00 0.00 94 1017.4
20260504081546 13 149 0.0 0.0 0.00 0.00 0.00 92 1017.5
20260504081042 13 149 0.0 0.0 0.00 0.00 0.00 92 1017.8
20260504080539 13 148 0.0 0.0 0.00 0.00 0.00 92 1017.9
20260504050352 13 147 0.0 0.0 0.00 0.00 0.00 89 1019.7
20260504045849 13 148 0.0 0.0 0.00 0.00 0.00 89 1019.8
20260504045349 13 148 0.0 0.0 0.00 0.00 0.00 88 1019.7
20260504044847 14 148 0.0 0.0 0.00 0.00 0.00 88 1019.9
20260504044344 14 147 0.0 0.0 0.00 0.00 0.00 88 1019.9
20260504043841 14 147 0.0 0.0 0.00 0.00 0.00 88 1019.8
20260504043338 14 147 0.0 0.0 0.00 0.00 0.00 88 1019.9
20260504042835 14 147 0.0 0.0 0.00 0.00 0.00 87 1019.8
20260504042332 14 147 0.0 0.0 0.00 0.00 0.00 87 1019.9
20260504041828 14 147 0.0 0.0 0.00 0.00 0.00 87 1019.7
20260504041324 14 147 0.0 0.0 0.00 0.00 0.00 86 1019.5
20260504040821 14 147 0.0 0.0 0.00 0.00 0.00 86 1019.6
20260504040318 14 147 0.0 0.0 0.00 0.00 0.00 85 1019.8
20260504035814 15 147 0.0 0.0 0.00 0.00 0.00 85 1019.9
20260504035312 15 147 0.0 0.0 0.00 0.00 0.00 84 1019.8
20260504034809 15 147 0.0 0.0 0.00 0.00 0.00 84 1019.8
20260504034306 15 147 0.0 0.0 0.00 0.00 0.00 83 1019.8
20260504033803 15 147 0.0 0.0 0.00 0.00 0.00 82 1019.8
20260504033301 15 148 0.0 0.0 0.00 0.00 0.00 82 1019.9
20260504032757 15 147 0.0 0.0 0.00 0.00 0.00 81 1019.7
20260504032254 15 147 0.0 0.0 0.00 0.00 0.00 80 1019.7
20260504031751 15 147 0.0 0.0 0.00 0.00 0.00 80 1019.7
20260504031249 15 147 0.0 0.0 0.00 0.00 0.00 79 1019.7
20260504030744 16 147 0.0 0.0 0.00 0.00 0.00 78 1019.7
20260504030242 16 147 0.0 0.0 0.00 0.00 0.00 77 1019.6
20260504025738 16 147 0.0 0.0 0.00 0.00 0.00 75 1019.7
20260504025235 16 146 0.0 0.0 0.00 0.00 0.00 74 1019.8
20260504024732 17 147 0.0 0.0 0.00 0.00 0.00 73 1019.7
20260504024228 17 147 0.0 0.0 0.00 0.00 0.00 72 1019.8
20260504023726 17 147 0.0 0.0 0.00 0.00 0.00 71 1019.8
20260504023221 17 148 0.0 0.0 0.00 0.00 0.00 72 1019.9
20260504022718 17 148 0.0 0.0 0.00 0.00 0.00 71 1019.5
20260504022214 17 146 0.0 0.0 0.00 0.00 0.00 71 1019.5
20260504021712 17 145 0.0 0.0 0.00 0.00 0.00 71 1019.6
20260504021209 17 143 0.0 0.0 0.00 0.00 0.00 70 1019.6
20260504020705 18 145 0.0 0.0 0.00 0.00 0.00 70 1019.7
20260504020201 18 147 0.0 0.0 0.00 0.00 0.00 68 1019.7
20260504015658 18 147 0.0 0.0 0.00 0.00 0.00 69 1019.8
20260504015154 18 144 0.0 0.0 0.00 0.00 0.00 69 1019.6
20260504014650 18 130 0.0 1.6 0.00 0.00 0.00 69 1019.5
20260504014147 18 138 1.6 1.6 0.00 0.00 0.00 67 1019.6
20260504013645 18 145 0.0 0.0 0.00 0.00 0.00 66 1019.7
20260504013142 18 145 0.0 0.0 0.00 0.00 0.00 65 1019.8
20260504012639 18 152 0.0 0.0 0.00 0.00 0.00 66 1019.7
20260504012137 19 154 0.0 0.0 0.00 0.00 0.00 65 1019.7
20260504011633 19 147 0.0 0.0 0.00 0.00 0.00 64 1019.6
20260504011130 20 142 0.0 0.0 0.00 0.00 0.00 64 1019.5
20260504010626 20 146 0.0 0.0 0.00 0.00 0.00 62 1019.9
20260504010122 20 147 0.0 0.0 0.00 0.00 0.00 62 1019.7
20260504005619 20 145 0.0 0.0 0.00 0.00 0.00 63 1019.7
20260504005116 20 144 1.6 1.6 0.00 0.00 0.00 62 1019.5
20260504004614 20 145 0.0 1.6 0.00 0.00 0.00 60 1019.7
20260504004111 20 149 0.0 0.0 0.00 0.00 0.00 60 1019.7
20260504003607 21 146 1.6 1.6 0.00 0.00 0.00 58 1019.5
20260504003104 21 147 1.6 1.6 0.00 0.00 0.00 58 1019.4
20260504002600 21 130 0.0 1.6 0.00 0.00 0.00 58 1019.5
20260504002058 21 167 1.6 3.2 0.00 0.00 0.00 56 1019.5
20260504001555 22 130 1.6 1.6 0.00 0.00 0.00 55 1019.5
20260504001051 22 170 1.6 1.6 0.00 0.00 0.00 53 1019.6
20260504000549 23 137 6.4 8.0 0.00 0.00 0.00 51 1019.6
20260504000046 25 150 3.2 3.2 0.00 0.00 0.00 48 1019.8
20260503235544 25 123 3.2 3.2 0.00 0.00 0.00 46 1019.6
20260503235041 25 145 3.2 3.2 0.00 0.00 0.00 46 1019.6
20260503234538 25 130 3.2 4.8 0.00 0.00 0.00 47 1019.9
20260503234037 25 148 3.2 3.2 0.00 0.00 0.00 46 1019.9
20260503233533 26 158 4.8 4.8 0.00 0.00 0.00 45 1019.9
20260503233029 26 133 3.2 3.2 0.00 0.00 0.00 46 1019.8
20260503232526 26 156 4.8 8.0 0.00 0.00 0.00 44 1020.0
20260503232023 26 168 4.8 11.3 0.00 0.00 0.00 42 1019.9
20260503231521 27 132 4.8 8.0 0.00 0.00 0.00 42 1020.0
20260503231018 27 152 1.6 3.2 0.00 0.00 0.00 43 1020.2
20260503230514 27 142 0.0 0.0 0.00 0.00 0.00 43 1020.2
20260503230012 26 161 4.8 4.8 0.00 0.00 0.00 42 1020.3
20260503225509 26 145 1.6 1.6 0.00 0.00 0.00 43 1020.1
20260503225004 26 155 3.2 3.2 0.00 0.00 0.00 43 1020.1
20260503224501 26 140 1.6 1.6 0.00 0.00 0.00 42 1020.4
20260503223959 27 114 8.0 11.3 0.00 0.00 0.00 41 1020.4
20260503223457 27 118 0.0 1.6 0.00 0.00 0.00 40 1020.6
20260503222952 26 286 1.6 3.2 0.00 0.00 0.00 42 1020.6
20260503222451 27 155 3.2 4.8 0.00 0.00 0.00 41 1020.6
20260503221948 28 145 4.8 4.8 0.00 0.00 0.00 41 1020.5
20260503221446 28 144 4.8 4.8 0.00 0.00 0.00 40 1020.4
20260503220943 28 121 4.8 8.0 0.00 0.00 0.00 40 1020.4
20260503220439 27 146 1.6 3.2 0.00 0.00 0.00 42 1020.5
20260503215936 28 164 1.6 3.2 0.00 0.00 0.00 38 1020.5
20260503215433 28 146 1.6 1.6 0.00 0.00 0.00 39 1020.7
20260503214931 27 151 3.2 4.8 0.00 0.00 0.00 41 1020.8
20260503214429 28 160 0.0 0.0 0.00 0.00 0.00 39 1020.9
20260503213926 28 142 4.8 4.8 0.00 0.00 0.00 41 1020.7
20260503213424 28 148 1.6 1.6 0.00 0.00 0.00 40 1020.8
20260503212920 27 153 1.6 1.6 0.00 0.00 0.00 41 1021.0
20260503212418 27 152 4.8 4.8 0.00 0.00 0.00 42 1020.9
20260503211915 27 140 3.2 4.8 0.00 0.00 0.00 40 1021.1
20260503211412 27 161 3.2 3.2 0.00 0.00 0.00 42 1021.2
20260503210907 27 154 1.6 3.2 0.00 0.00 0.00 44 1021.1
20260503210404 28 148 6.4 8.0 0.00 0.00 0.00 41 1021.2
20260503205858 27 105 3.2 3.2 0.00 0.00 0.00 42 1021.2
20260503205355 28 116 3.2 4.8 0.00 0.00 0.00 42 1021.1
20260503204852 27 160 1.6 1.6 0.00 0.00 0.00 44 1021.3
20260503204349 27 160 3.2 4.8 0.00 0.00 0.00 41 1021.2
20260503203847 27 163 3.2 3.2 0.00 0.00 0.00 42 1021.5
20260503203344 27 146 4.8 8.0 0.00 0.00 0.00 42 1021.6
20260503202841 27 180 8.0 9.7 0.00 0.00 0.00 41 1021.7
20260503202339 28 166 4.8 8.0 0.00 0.00 0.00 42 1021.7
20260503201837 27 121 3.2 3.2 0.00 0.00 0.00 41 1021.7
20260503201333 27 187 8.0 12.9 0.00 0.00 0.00 39 1022.0
20260503200831 28 173 3.2 3.2 0.00 0.00 0.00 42 1021.9
20260503200327 27 94 1.6 3.2 0.00 0.00 0.00 47 1022.0
20260503195824 27 152 4.8 4.8 0.00 0.00 0.00 41 1022.1
20260503195321 27 105 6.4 9.7 0.00 0.00 0.00 43 1022.1
20260503194819 27 136 6.4 8.0 0.00 0.00 0.00 47 1022.2
20260503194314 28 149 6.4 9.7 0.00 0.00 0.00 43 1022.1
20260503193810 27 154 8.0 11.3 0.00 0.00 0.00 42 1022.1
20260503193306 27 130 6.4 8.0 0.00 0.00 0.00 42 1022.3
20260503192802 28 138 3.2 4.8 0.00 0.00 0.00 46 1022.4